Location: ?????????
(44.2517°N, 135.2292°E)
Time: 11:40:23
(UTC+00:00)

Cosmos 1953 - Pass Details

Date: 19 May 2025
Orbit: 485 x 502 km, 82.5° (Epoch: 14 June)

Event Time Altitude Azimuth Distance (km) Brightness Sun altitude
Rises 16:00:44 0° 3° (N) 2,567 7.0 -24.1°
Reaches altitude 10° 16:03:06 10° 17° (NNE) 1,682 5.9 -24.0°
Maximum altitude 16:06:12 25° 74° (ENE) 1,021 4.0 -23.8°
Enters shadow 16:06:56 23° 94° (E) 1,068 3.9 -23.8°
